KUIPER-00192

Last updated on Sun Apr 12 2026 00:02:10 GMT+0000 (Coordinated Universal Time)

1 68575U 26072C 26101.50002315 .00054082 00000+0 14467-2 0 9996 2 68575 51.8745 139.4243 0005184 119.4096 143.2670 15.37511981 1305
UTC large
Height (km)
Speed (km/s)
/
Latitude / Longitude
Inclination (degrees)
Orbital Period (minutes)
Azimuth
Elevation
Range (km)
Doppler Factor

Next 0 passes for location: London (51.5072 / 0.1276)

Sorry there are no passes over London.
KUIPER-00192